[[{"header":{"parameterUnit":"m.s-1","parameterCategory":1,"la1":30.2992,"la2":30.254,"lo1":-89.0895,"lo2":-89.0443,"dy":0.0025,"dx":0.0025,"nx":19,"ny":19,"refTime":"2026-05-15T03:00:00:Z","depth":0,"parameterNumber":2,"parameterNumberName":"U-component_of_WINDS"},"data":[0,0,0,-3.9827,-3.9829,-3.9897,-3.9898,-4.0024,-4.0025,0,0,0,0,0,0,0,0,0,0,0,-3.983,-3.9831,-3.9826,-3.9829,-3.9897,-3.9898,-4.0024,-4.0025,0,0,0,0,0,0,0,0,0,0,0,-3.9829,-3.9831,-3.9833,-3.9829,-3.9897,-3.9898,-4.0023,-3.9958,0,0,0,0,0,0,0,0,0,0,-3.9884,-3.991,-3.983,-3.9833,-3.983,-3.9897,-3.9898,-3.9954,-3.9962,-4.0009,0,-4.0058,0,-4.0044,-4.0036,-4.0037,0,0,0,-3.9811,-3.9904,-3.9901,-3.9833,-3.9831,-3.9897,-3.9862,-3.9958,-3.9967,-4.002,-4.0059,-4.0063,-4.0046,-4.0037,-4.0038,-4.0371,-4.0373,0,0,-3.9808,-3.9855,-3.9895,-3.9908,-3.99,-3.9859,-3.9864,-3.9963,-4.0009,-4.006,-4.0065,-4.0048,-4.0039,-4.004,-4.0369,-4.0372,0,0,0,-3.9808,-3.9853,-3.9847,-3.9904,-3.9914,-3.9862,-3.9867,-4.0004,-3.9998,-4.0066,-4.005,-4.0039,-4.0041,-4.0366,-4.037,-4.0532,0,0,0,-3.9805,-3.9853,-3.9846,-3.9876,-3.9913,-3.996,-3.9907,-3.9991,-4.0001,-4.0049,-4.004,-4.0043,-4.0363,-4.0368,-4.0522,-4.06,0,0,0,-3.9817,-3.9854,-3.9872,-3.9878,-3.9909,-3.9957,-3.9956,-3.9992,-3.9992,-4.0037,-4.0044,-4.0361,-4.0367,-4.0512,-4.0585,-4.07,0,0,0,-3.9843,-4.0016,-3.9876,-4.0062,-3.9909,-4.0058,-3.9955,-4.0063,-4.0121,-4.004,-4.0364,-4.0369,-4.051,-4.0576,-4.0691,-4.0805,-4.0857,0,0,-4.0087,-4.0047,-4.0152,-4.0029,-4.0214,-4.0043,-4.0252,-4.0261,-4.0222,-4.0324,-4.0331,-4.0525,-4.0584,-4.0698,-4.1137,-4.1179,0,0,0,-4.0245,-4.0322,-4.0361,-4.0418,-4.043,-4.0446,-4.0418,-4.0421,-4.0505,-4.0284,-4.0597,-4.0631,-4.0696,-4.0748,-4.0784,-4.0836,-4.0396,-4.0395,-4.0395,-4.0656,-4.0598,-4.0769,-4.0719,-4.0777,-4.0747,-4.0788,-4.0787,-4.0712,-4.0787,-4.0816,-4.1089,-4.1152,-4.1178,-4.1234,-4.0873,-4.0873,-4.0874,-4.0874,-4.1006,-4.1104,-4.1001,-4.1129,-4.1067,-4.1174,-4.1153,-4.1096,-4.1187,-4.1062,-4.1117,-4.0984,-4.1226,-4.1271,-4.0886,-4.0884,-4.0883,-4.0881,-4.0881,-4.1266,-4.1303,-4.1305,-4.1383,-4.145,-4.1394,-4.1486,-4.1426,-4.1371,-4.1425,-4.1449,-4.1446,-4.1434,-4.1441,-4.1442,-4.1443,-4.1444,-4.1445,-4.1445,-4.1535,-4.1532,-4.1616,-4.1644,-4.1673,-4.1705,-4.1678,-4.1705,-4.172,-4.1669,-4.1669,-4.1586,-4.1261,-4.118,-4.146,-4.1457,-4.1455,-4.1454,-4.1453,-4.1907,-4.1814,-4.1945,-4.1975,-4.2002,-4.2072,-4.1996,-4.2057,-4.2071,-4.2119,-4.2025,-4.1795,-4.1749,-4.172,-4.1652,-4.2037,-4.2037,-4.2037,-4.2037,-4.2125,-4.2097,-4.2217,-4.2269,-4.2312,-4.2257,-4.2407,-4.2389,-4.2355,-4.236,-4.2296,-4.2202,-4.2176,-4.2145,-4.2107,-4.2043,-4.2518,-4.2519,-4.2519,-4.235,-4.2324,-4.2462,-4.2428,-4.2445,-4.2462,-4.2601,-4.2664,-4.2607,-4.2538,-4.2363,-4.2342,-4.2189,-4.2143,-4.2067,-4.2009,-4.1889,0,0]},{"header":{"parameterUnit":"m.s-1","parameterCategory":1,"la1":30.2992,"la2":30.254,"lo1":-89.0895,"lo2":-89.0443,"dy":0.0025,"dx":0.0025,"nx":19,"ny":19,"refTime":"2026-05-15T03:00:00:Z","depth":0,"parameterNumber":3,"parameterNumberName":"V-component_of_WINDS"},"data":[0,0,0,1.6925,1.6923,1.6803,1.6802,1.6685,1.6685,0,0,0,0,0,0,0,0,0,0,0,1.6985,1.6986,1.6925,1.6923,1.6803,1.6802,1.6686,1.6685,0,0,0,0,0,0,0,0,0,0,0,1.6985,1.6986,1.6986,1.6923,1.6803,1.6802,1.6686,1.6763,0,0,0,0,0,0,0,0,0,0,1.6873,1.6953,1.6985,1.6986,1.6922,1.6803,1.6802,1.6766,1.6758,1.6756,0,1.6764,0,1.6723,1.668,1.6679,0,0,0,1.6904,1.696,1.6906,1.6986,1.6921,1.6804,1.6852,1.6761,1.6752,1.6746,1.6762,1.6757,1.6721,1.6679,1.6679,1.6742,1.6743,0,0,1.691,1.6976,1.6912,1.6901,1.6925,1.6856,1.6848,1.6755,1.6775,1.6762,1.6753,1.6719,1.6679,1.6678,1.6741,1.6743,0,0,0,1.6942,1.6982,1.6929,1.6907,1.6883,1.6853,1.6844,1.6779,1.6757,1.6752,1.6718,1.6678,1.6677,1.674,1.6742,1.6867,0,0,0,1.6945,1.7,1.6933,1.6972,1.6886,1.683,1.6872,1.6763,1.6751,1.6719,1.6678,1.6676,1.6738,1.6741,1.686,1.6914,0,0,0,1.6985,1.7005,1.6996,1.6976,1.6927,1.683,1.6801,1.6759,1.6731,1.6679,1.6676,1.6737,1.674,1.6855,1.6905,1.6951,0,0,0,1.7045,1.7107,1.6999,1.7056,1.6929,1.691,1.6801,1.6783,1.6754,1.6678,1.6738,1.6741,1.6853,1.6899,1.6946,1.7002,1.7032,0,0,1.716,1.7124,1.7151,1.7051,1.7069,1.6923,1.6957,1.6866,1.6798,1.6764,1.6765,1.6862,1.6904,1.695,1.7178,1.7203,0,0,0,1.721,1.7231,1.7222,1.7199,1.7133,1.708,1.6977,1.6943,1.6911,1.6796,1.6889,1.6912,1.6936,1.696,1.6981,1.6997,1.6755,1.6755,1.6755,1.7468,1.7381,1.7422,1.7322,1.7301,1.7195,1.7169,1.7105,1.7021,1.7045,1.7034,1.7184,1.7215,1.723,1.7248,1.7057,1.7058,1.7058,1.7058,1.7629,1.7645,1.7536,1.7536,1.7444,1.7442,1.7343,1.7284,1.7268,1.7184,1.7201,1.7118,1.7259,1.727,1.7067,1.7066,1.7064,1.7064,1.7063,1.7788,1.778,1.7741,1.7699,1.7676,1.7571,1.7562,1.7477,1.7397,1.7414,1.7393,1.7391,1.7378,1.741,1.7411,1.7411,1.7411,1.7412,1.7412,1.7968,1.7919,1.7923,1.786,1.7835,1.779,1.7686,1.7657,1.7604,1.7543,1.7542,1.7457,1.729,1.725,1.742,1.7418,1.7417,1.7417,1.7416,1.8163,1.8106,1.8113,1.8088,1.8007,1.799,1.7883,1.7833,1.7797,1.7795,1.7707,1.7597,1.7552,1.7535,1.7501,1.7726,1.7726,1.7726,1.7726,1.8297,1.8267,1.8255,1.8221,1.8178,1.8083,1.8091,1.8011,1.7917,1.789,1.7845,1.7793,1.7779,1.7742,1.772,1.7687,1.7954,1.7954,1.7955,1.8412,1.8375,1.8399,1.8311,1.8242,1.8184,1.8189,1.8153,1.8035,1.7962,1.7866,1.7856,1.7771,1.7748,1.7673,1.7641,1.7579,0,0]}]]